GW2980 Weather Reports


time (UTC)temp
C
wind
direction
speed
KPH
gust
KPH
rain 1hr
cm
rain 24hr
cm
rain mn
cm
humidity
%
barometer
mb
20260510092136 12 0.0 0.0 0.00 0.00 0.00 79 947.0
20260510091536 12 0.0 0.0 0.00 0.00 0.00 79 947.0
20260510091236 13 0.0 0.0 0.00 0.00 0.00 77 947.0
20260510090936 13 0.0 0.0 0.00 0.00 0.00 75 947.0
20260510090636 13 0.0 0.0 0.00 0.00 0.00 73 947.0
20260510090336 14 0.0 0.0 0.00 0.00 0.00 71 946.0
20260510085736 14 0.0 0.0 0.00 0.00 0.00 71 946.7
20260510085436 14 0.0 0.0 0.00 0.00 0.00 71 946.7
20260510085136 14 0.0 0.0 0.00 0.00 0.00 70 946.0
20260510084836 14 0.0 0.0 0.00 0.00 0.00 70 946.0
20260510084535 15 0.0 0.0 0.00 0.00 0.00 68 946.0
20260510084235 15 0.0 0.0 0.00 0.00 0.00 68 946.0
20260510083936 15 0.0 0.0 0.00 0.00 0.00 68 946.0
20260510083635 15 0.0 0.0 0.00 0.00 0.00 68 946.0
20260510083336 15 0.0 0.0 0.00 0.00 0.00 66 946.0
20260510083035 15 0.0 0.0 0.00 0.00 0.00 66 946.0
20260510082735 15 0.0 0.0 0.00 0.00 0.00 65 946.0
20260510082436 15 0.0 0.0 0.00 0.00 0.00 65 946.0
20260510082136 15 0.0 0.0 0.00 0.00 0.00 65 946.0
20260510081835 16 0.0 0.0 0.00 0.00 0.00 63 946.0
20260510081536 16 0.0 0.0 0.00 0.00 0.00 63 946.0
20260510080935 16 0.0 0.0 0.00 0.00 0.00 61 946.0
20260510080336 17 0.0 0.0 0.00 0.00 0.00 59 946.0
20260510075436 20 0.0 0.0 0.00 0.00 0.00 53 945.7
20260510074836 20 0.0 0.0 0.00 0.00 0.00 56 945.0
20260510074236 17 0.0 0.0 0.00 0.00 0.00 60 945.0
20260510073935 15 0.0 0.0 0.00 0.00 0.00 64 945.0
20260510073636 15 0.0 0.0 0.00 0.00 0.00 64 946.0
20260510073335 15 0.0 0.0 0.00 0.00 0.00 64 946.0
20260510072436 15 0.0 0.0 0.00 0.00 0.00 64 946.0
20260510072135 15 0.0 0.0 0.00 0.00 0.00 64 946.0
20260510071836 15 0.0 0.0 0.00 0.00 0.00 64 946.0
20260510071536 14 0.0 0.0 0.00 0.00 0.00 64 946.0
20260510071236 14 0.0 0.0 0.00 0.00 0.00 64 946.0
20260510070935 15 0.0 0.0 0.00 0.00 0.00 65 946.0
20260510070636 15 0.0 0.0 0.00 0.00 0.00 65 946.0
20260510070335 15 0.0 0.0 0.00 0.00 0.00 65 946.0
20260510070036 15 0.0 0.0 0.00 0.00 0.00 65 946.0
20260510065735 15 0.0 0.0 0.00 0.00 0.00 65 946.0
20260510065436 15 0.0 0.0 0.00 0.00 0.00 65 946.1
20260510065135 14 0.0 0.0 0.00 0.00 0.00 68 946.0
20260510064836 14 0.0 0.0 0.00 0.00 0.00 68 946.0
20260510064236 13 0.0 0.0 0.00 0.00 0.00 71 946.0
20260510063936 13 0.0 0.0 0.00 0.00 0.00 71 946.0
20260510063635 12 0.0 0.0 0.00 0.00 0.00 73 946.0
20260510063336 12 0.0 0.0 0.00 0.00 0.00 74 946.0
20260510063036 12 0.0 0.0 0.00 0.00 0.00 74 946.0
20260510062735 12 0.0 0.0 0.00 0.00 0.00 74 946.0
20260510062136 12 0.0 0.0 0.00 0.00 0.00 74 946.0
20260510061836 12 0.0 0.0 0.00 0.00 0.00 74 946.0
20260510061535 12 0.0 0.0 0.00 0.00 0.00 74 946.0
20260510061236 12 0.0 0.0 0.00 0.00 0.00 74 946.0
20260510060935 12 0.0 0.0 0.00 0.00 0.00 74 946.0
20260510060635 12 0.0 0.0 0.00 0.00 0.00 75 946.5
20260510055735 12 0.0 0.0 0.00 0.00 0.00 75 946.5
20260510055436 11 0.0 0.0 0.00 0.00 0.00 77 946.5
20260510055136 11 0.0 0.0 0.00 0.00 0.00 77 946.5
20260510054836 11 0.0 0.0 0.00 0.00 0.00 77 946.5
20260510054535 11 0.0 0.0 0.00 0.00 0.00 77 946.5
20260510053936 11 0.0 0.0 0.00 0.00 0.00 77 946.5
20260510053635 11 0.0 0.0 0.00 0.00 0.00 77 946.5
20260510053336 11 0.0 0.0 0.00 0.00 0.00 77 946.5
20260510053036 11 0.0 0.0 0.00 0.00 0.00 77 946.5
20260510052735 11 0.0 0.0 0.00 0.00 0.00 77 946.5
20260510052436 11 0.0 0.0 0.00 0.00 0.00 77 946.5
20260510052135 11 0.0 0.0 0.00 0.00 0.00 77 946.5
20260510051836 11 0.0 0.0 0.00 0.00 0.00 77 946.5
20260510051536 11 0.0 0.0 0.00 0.00 0.00 77 946.5
20260510050935 11 0.0 0.0 0.00 0.00 0.00 77 946.5
20260510050036 11 0.0 0.0 0.00 0.00 0.00 77 946.5
20260510045736 11 0.0 0.0 0.00 0.00 0.00 77 946.5
20260510045435 11 0.0 0.0 0.00 0.00 0.00 77 946.0
20260510045135 11 0.0 0.0 0.00 0.00 0.00 77 946.0
20260510044835 11 0.0 0.0 0.00 0.00 0.00 77 946.0
20260510044536 11 0.0 0.0 0.00 0.00 0.00 77 946.0
20260510044236 11 0.0 0.0 0.00 0.00 0.00 77 946.0
20260510043936 11 0.0 0.0 0.00 0.00 0.00 77 946.0
20260510043635 11 0.0 0.0 0.00 0.00 0.00 77 946.0
20260510043335 11 0.0 0.0 0.00 0.00 0.00 77 946.0
20260510043036 11 0.0 0.0 0.00 0.00 0.00 77 946.0
20260510042736 11 0.0 0.0 0.00 0.00 0.00 77 946.0
20260510042136 11 0.0 0.0 0.00 0.00 0.00 77 946.6
20260510041836 11 0.0 0.0 0.00 0.00 0.00 77 946.6
20260510041536 11 0.0 0.0 0.00 0.00 0.00 77 946.6
20260510041236 11 0.0 0.0 0.00 0.00 0.00 77 946.6
20260510040936 11 0.0 0.0 0.00 0.00 0.00 77 946.6
20260510040636 11 0.0 0.0 0.00 0.00 0.00 77 946.6
20260510040336 11 0.0 0.0 0.00 0.00 0.00 77 946.6
20260510040036 11 0.0 0.0 0.00 0.00 0.00 76 946.0
20260510035436 11 0.0 0.0 0.00 0.00 0.00 76 946.0
20260510035136 11 0.0 0.0 0.00 0.00 0.00 76 946.0
20260510034536 11 0.0 0.0 0.00 0.00 0.00 77 946.9
20260510034236 11 0.0 0.0 0.00 0.00 0.00 77 946.9
20260510033636 11 0.0 0.0 0.00 0.00 0.00 77 946.9
20260510033335 11 0.0 0.0 0.00 0.00 0.00 77 946.9
20260510033035 11 0.0 0.0 0.00 0.00 0.00 77 946.9
20260510032435 11 0.0 0.0 0.00 0.00 0.00 77 946.9
20260510032136 11 0.0 0.0 0.00 0.00 0.00 77 946.9
20260510031836 11 0.0 0.0 0.00 0.00 0.00 77 946.9
20260510031535 11 0.0 0.0 0.00 0.00 0.00 77 946.9
20260510030936 11 0.0 0.0 0.00 0.00 0.00 77 946.9
20260510030635 11 0.0 0.0 0.00 0.00 0.00 77 947.0
20260510030336 11 0.0 0.0 0.00 0.00 0.00 77 947.0
20260510030036 11 0.0 0.0 0.00 0.00 0.00 77 947.0
20260510025736 11 0.0 0.0 0.00 0.00 0.00 77 947.0
20260510025136 12 0.0 0.0 0.00 0.00 0.00 77 947.0
20260510024836 12 0.0 0.0 0.00 0.00 0.00 77 947.0
20260510024236 12 0.0 0.0 0.00 0.00 0.00 77 947.0
20260510023635 12 0.0 0.0 0.00 0.00 0.00 77 947.0
20260510023335 12 0.0 0.0 0.00 0.00 0.00 77 947.0
20260510022736 12 0.0 0.0 0.00 0.00 0.00 77 947.0
20260510022135 12 0.0 0.0 0.00 0.00 0.00 77 947.0
20260510021904 12 0.0 0.0 0.00 0.00 0.00 77 947.0
20260510021544 12 0.0 0.0 0.00 0.00 0.00 78 947.0
20260510021235 12 0.0 0.0 0.00 0.00 0.00 78 947.0
20260510020936 12 0.0 0.0 0.00 0.00 0.00 78 947.0
20260510020636 12 0.0 0.0 0.00 0.00 0.00 78 947.0
20260510020336 12 0.0 0.0 0.00 0.00 0.00 78 947.0
20260510020035 12 0.0 0.0 0.00 0.00 0.00 78 947.0
20260510015735 12 0.0 0.0 0.00 0.00 0.00 78 947.0
20260510014836 12 0.0 0.0 0.00 0.00 0.00 78 947.0
20260510014236 12 0.0 0.0 0.00 0.00 0.00 78 947.0
20260510013935 12 0.0 0.0 0.00 0.00 0.00 77 947.1
20260510013636 12 0.0 0.0 0.00 0.00 0.00 77 947.1
20260510013335 12 0.0 0.0 0.00 0.00 0.00 77 947.1
20260510013036 12 0.0 0.0 0.00 0.00 0.00 77 947.1
20260510012735 12 0.0 0.0 0.00 0.00 0.00 77 947.1
20260510012435 12 0.0 0.0 0.00 0.00 0.00 77 947.1
20260510012136 12 0.0 0.0 0.00 0.00 0.00 77 947.1
20260510011835 12 0.0 0.0 0.00 0.00 0.00 78 947.0
20260510011536 12 0.0 0.0 0.00 0.00 0.00 78 947.0
20260510011236 12 0.0 0.0 0.00 0.00 0.00 78 947.0
20260510010935 12 0.0 0.0 0.00 0.00 0.00 78 947.0
20260510010636 12 0.0 0.0 0.00 0.00 0.00 78 947.0
20260510010335 12 0.0 0.0 0.00 0.00 0.00 78 947.0
20260510010036 12 0.0 0.0 0.00 0.00 0.00 78 947.0
20260510005435 12 0.0 0.0 0.00 0.00 0.00 77 947.4
20260510005136 12 0.0 0.0 0.00 0.00 0.00 77 947.4
20260510004835 12 0.0 0.0 0.00 0.00 0.00 77 947.4
20260510004535 12 0.0 0.0 0.00 0.00 0.00 77 947.4
20260510004236 12 0.0 0.0 0.00 0.00 0.00 77 947.4
20260510003936 12 0.0 0.0 0.00 0.00 0.00 77 947.4
20260510003636 12 0.0 0.0 0.00 0.00 0.00 77 947.4
20260510003335 12 0.0 0.0 0.00 0.00 0.00 77 947.4
20260510003035 12 0.0 0.0 0.00 0.00 0.00 77 947.4
20260510002736 12 0.0 0.0 0.00 0.00 0.00 77 947.0
20260510002435 12 0.0 0.0 0.00 0.00 0.00 77 947.0
20260510002135 12 0.0 0.0 0.00 0.00 0.00 77 947.0
20260510001536 12 0.0 0.0 0.00 0.00 0.00 77 947.0
20260510000936 12 0.0 0.0 0.00 0.00 0.00 75 947.3
20260510000635 12 0.0 0.0 0.00 0.00 0.00 75 947.3
20260510000336 12 0.0 0.0 0.00 0.00 0.00 75 947.3
20260510000036 12 0.0 0.0 0.00 0.00 0.00 75 947.3
20260509235736 12 0.0 0.0 0.00 0.00 0.00 75 947.3
20260509235435 12 0.0 0.0 0.00 0.00 0.00 75 947.3
20260509235135 12 0.0 0.0 0.00 0.00 0.00 75 947.3
20260509234835 12 0.0 0.0 0.00 0.00 0.00 75 947.3
20260509234535 12 0.0 0.0 0.00 0.00 0.00 75 947.3
20260509234236 12 0.0 0.0 0.00 0.00 0.00 75 947.3
20260509233936 12 0.0 0.0 0.00 0.00 0.00 75 947.3
20260509233636 12 0.0 0.0 0.00 0.00 0.00 75 947.3
20260509233335 12 0.0 0.0 0.00 0.00 0.00 75 947.3
20260509233036 12 0.0 0.0 0.00 0.00 0.00 75 947.0
20260509232736 12 0.0 0.0 0.00 0.00 0.00 75 947.0
20260509232435 12 0.0 0.0 0.00 0.00 0.00 75 947.0
20260509232136 13 0.0 0.0 0.00 0.00 0.00 71 947.0
20260509231535 13 0.0 0.0 0.00 0.00 0.00 71 947.0
20260509231235 13 0.0 0.0 0.00 0.00 0.00 71 947.0
20260509230936 13 0.0 0.0 0.00 0.00 0.00 71 947.0
20260509230636 13 0.0 0.0 0.00 0.00 0.00 71 947.0
20260509230336 13 0.0 0.0 0.00 0.00 0.00 71 947.0
20260509230035 13 0.0 0.0 0.00 0.00 0.00 69 947.1
20260509225436 13 0.0 0.0 0.00 0.00 0.00 69 947.1
20260509224836 13 0.0 0.0 0.00 0.00 0.00 69 947.1
20260509224536 13 0.0 0.0 0.00 0.00 0.00 69 947.1
20260509224236 13 0.0 0.0 0.00 0.00 0.00 69 947.1
20260509223636 13 0.0 0.0 0.00 0.00 0.00 70 946.0
20260509223336 13 0.0 0.0 0.00 0.00 0.00 70 946.0
20260509222736 13 0.0 0.0 0.00 0.00 0.00 70 946.0
20260509222436 13 0.0 0.0 0.00 0.00 0.00 70 946.0
20260509222135 13 0.0 0.0 0.00 0.00 0.00 70 946.0
20260509221536 13 0.0 0.0 0.00 0.00 0.00 70 946.0
20260509221236 13 0.0 0.0 0.00 0.00 0.00 70 946.0
20260509220936 13 0.0 0.0 0.00 0.00 0.00 70 946.0
20260509220636 13 0.0 0.0 0.00 0.00 0.00 70 946.0
20260509220036 13 0.0 0.0 0.00 0.00 0.00 70 946.0
20260509215436 13 0.0 0.0 0.00 0.00 0.00 70 946.0
20260509215135 13 0.0 0.0 0.00 0.00 0.00 70 946.0
20260509214836 13 0.0 0.0 0.00 0.00 0.00 70 946.0
20260509214536 13 0.0 0.0 0.00 0.00 0.00 70 946.0
20260509213936 13 0.0 0.0 0.00 0.00 0.00 70 946.0
20260509213336 13 0.0 0.0 0.00 0.00 0.00 70 946.0
20260509212736 14 0.0 0.0 0.00 0.00 0.00 68 946.0
20260509212436 14 0.0 0.0 0.00 0.00 0.00 68 946.0
20260509212136 14 0.0 0.0 0.00 0.00 0.00 68 946.0
20260509211535 14 0.0 0.0 0.00 0.00 0.00 67 946.0
20260509211236 14 0.0 0.0 0.00 0.00 0.00 67 946.0
20260509210635 15 0.0 0.0 0.00 0.00 0.00 67 946.0
20260509210336 15 0.0 0.0 0.00 0.00 0.00 67 945.9
20260509205736 15 0.0 0.0 0.00 0.00 0.00 67 945.9
20260509205435 15 0.0 0.0 0.00 0.00 0.00 67 945.9
20260509205136 15 0.0 0.0 0.00 0.00 0.00 67 945.9
20260509204535 15 0.0 0.0 0.00 0.00 0.00 66 945.0
20260509204236 15 0.0 0.0 0.00 0.00 0.00 66 945.0
20260509203935 15 0.0 0.0 0.00 0.00 0.00 66 945.0
20260509203635 15 0.0 0.0 0.00 0.00 0.00 65 945.4
20260509203036 15 0.0 0.0 0.00 0.00 0.00 63 945.0
20260509202735 15 0.0 0.0 0.00 0.00 0.00 63 945.0
20260509202435 15 0.0 0.0 0.00 0.00 0.00 63 945.0
20260509202136 16 0.0 0.0 0.00 0.00 0.00 59 945.0
20260509201835 16 0.0 0.0 0.00 0.00 0.00 59 945.0
20260509200936 16 0.0 0.0 0.00 0.00 0.00 59 945.0
20260509200635 16 0.0 0.0 0.00 0.00 0.00 58 944.0
20260509200336 16 0.0 0.0 0.00 0.00 0.00 58 944.0
20260509200036 16 0.0 0.0 0.00 0.00 0.00 58 944.0
20260509195136 15 0.0 0.0 0.00 0.00 0.00 59 944.4
20260509194836 15 0.0 0.0 0.00 0.00 0.00 59 944.4
20260509194536 15 0.0 0.0 0.00 0.00 0.00 59 944.4
20260509193936 15 0.0 0.0 0.00 0.00 0.00 59 944.4
20260509193635 15 0.0 0.0 0.00 0.00 0.00 59 944.4
20260509193036 16 0.0 0.0 0.00 0.00 0.00 57 944.0
20260509192735 16 0.0 0.0 0.00 0.00 0.00 57 944.0
20260509192136 16 0.0 0.0 0.00 0.00 0.00 57 944.0
20260509191836 16 0.0 0.0 0.00 0.00 0.00 56 943.0
20260509191536 16 0.0 0.0 0.00 0.00 0.00 56 943.0
20260509190336 16 0.0 0.0 0.00 0.00 0.00 54 943.0
20260509190036 16 0.0 0.0 0.00 0.00 0.00 54 943.0
20260509185436 16 0.0 0.0 0.00 0.00 0.00 54 943.0
20260509184835 16 0.0 0.0 0.00 0.00 0.00 54 943.0
20260509184536 16 0.0 0.0 0.00 0.00 0.00 54 943.0
20260509183636 16 0.0 0.0 0.00 0.00 0.00 54 943.0
20260509183335 17 0.0 0.0 0.00 0.00 0.00 53 943.4
20260509182736 17 0.0 0.0 0.00 0.00 0.00 52 943.0
20260509182136 17 0.0 0.0 0.00 0.00 0.00 52 943.0
20260509181836 17 0.0 0.0 0.00 0.00 0.00 52 943.0
20260509181536 17 0.0 0.0 0.00 0.00 0.00 53 943.0
20260509181236 17 0.0 0.0 0.00 0.00 0.00 53 943.0
20260509180936 17 0.0 0.0 0.00 0.00 0.00 53 943.0
20260509180636 17 0.0 0.0 0.00 0.00 0.00 53 943.0
20260509180336 17 0.0 0.0 0.00 0.00 0.00 53 943.0
20260509180036 17 0.0 0.0 0.00 0.00 0.00 53 943.0
20260509175736 17 0.0 0.0 0.00 0.00 0.00 53 943.0
20260509175436 17 0.0 0.0 0.00 0.00 0.00 53 943.0
20260509174835 18 0.0 0.0 0.00 0.00 0.00 52 942.0
20260509174536 18 0.0 0.0 0.00 0.00 0.00 52 942.0
20260509174236 18 0.0 0.0 0.00 0.00 0.00 51 942.0
20260509173935 18 0.0 0.0 0.00 0.00 0.00 51 942.0
20260509173636 18 0.0 0.0 0.00 0.00 0.00 51 942.0
20260509172736 18 0.0 0.0 0.00 0.00 0.00 51 942.0
20260509172436 18 0.0 0.0 0.00 0.00 0.00 51 942.0
20260509172135 18 0.0 0.0 0.00 0.00 0.00 51 942.0
20260509171835 18 0.0 0.0 0.00 0.00 0.00 51 942.0
20260509171536 18 0.0 0.0 0.00 0.00 0.00 51 942.0
20260509171236 18 0.0 0.0 0.00 0.00 0.00 51 942.0
20260509170936 18 0.0 0.0 0.00 0.00 0.00 51 942.0
20260509170636 17 0.0 0.0 0.00 0.00 0.00 51 943.0
20260509170336 17 0.0 0.0 0.00 0.00 0.00 51 943.0
20260509170036 17 0.0 0.0 0.00 0.00 0.00 51 943.0
20260509165736 17 0.0 0.0 0.00 0.00 0.00 51 943.0
20260509165435 17 0.0 0.0 0.00 0.00 0.00 51 943.0
20260509165135 18 0.0 0.0 0.00 0.00 0.00 52 942.0
20260509164836 18 0.0 0.0 0.00 0.00 0.00 52 942.0
20260509164536 18 0.0 0.0 0.00 0.00 0.00 52 942.0
20260509164236 18 0.0 0.0 0.00 0.00 0.00 52 942.0
20260509163936 18 0.0 0.0 0.00 0.00 0.00 52 942.0
20260509163635 18 0.0 0.0 0.00 0.00 0.00 52 942.0
20260509163336 18 0.0 0.0 0.00 0.00 0.00 52 942.0
20260509163035 18 0.0 0.0 0.00 0.00 0.00 52 942.0
20260509162736 18 0.0 0.0 0.00 0.00 0.00 52 942.0
20260509162136 18 0.0 0.0 0.00 0.00 0.00 52 942.0
20260509161836 18 0.0 0.0 0.00 0.00 0.00 52 942.0
20260509161536 18 0.0 0.0 0.00 0.00 0.00 52 942.0
20260509161235 18 0.0 0.0 0.00 0.00 0.00 52 942.0
20260509160936 18 0.0 0.0 0.00 0.00 0.00 52 942.8
20260509160635 18 0.0 0.0 0.00 0.00 0.00 52 942.8
20260509160336 18 0.0 0.0 0.00 0.00 0.00 52 942.8
20260509155736 18 0.0 0.0 0.00 0.00 0.00 52 942.0
20260509155436 18 0.0 0.0 0.00 0.00 0.00 52 942.0
20260509155136 18 0.0 0.0 0.00 0.00 0.00 52 942.0
20260509154536 19 0.0 0.0 0.00 0.00 0.00 50 943.0
20260509154236 19 0.0 0.0 0.00 0.00 0.00 50 943.0
20260509153635 19 0.0 0.0 0.00 0.00 0.00 47 942.0
20260509153036 19 0.0 0.0 0.00 0.00 0.00 47 942.0
20260509152735 20 0.0 0.0 0.00 0.00 0.00 47 942.8
20260509152435 20 0.0 0.0 0.00 0.00 0.00 47 942.8
20260509152135 20 0.0 0.0 0.00 0.00 0.00 47 942.8
20260509151836 20 0.0 0.0 0.00 0.00 0.00 47 942.8
20260509151536 20 0.0 0.0 0.00 0.00 0.00 47 942.8
20260509151235 20 0.0 0.0 0.00 0.00 0.00 47 942.8
20260509150936 20 0.0 0.0 0.00 0.00 0.00 47 942.8
20260509150635 20 0.0 0.0 0.00 0.00 0.00 47 942.8
20260509150335 20 0.0 0.0 0.00 0.00 0.00 47 942.8
20260509150036 20 0.0 0.0 0.00 0.00 0.00 46 942.0
20260509145735 20 0.0 0.0 0.00 0.00 0.00 46 942.0
20260509145136 20 0.0 0.0 0.00 0.00 0.00 46 942.0
20260509144535 20 0.0 0.0 0.00 0.00 0.00 46 942.0
20260509144236 20 0.0 0.0 0.00 0.00 0.00 46 942.0
20260509143936 20 0.0 0.0 0.00 0.00 0.00 46 942.0
20260509143635 20 0.0 0.0 0.00 0.00 0.00 46 942.0
20260509143336 20 0.0 0.0 0.00 0.00 0.00 46 942.0
20260509143036 20 0.0 0.0 0.00 0.00 0.00 47 943.0
20260509142136 20 0.0 0.0 0.00 0.00 0.00 48 943.1
20260509141836 20 0.0 0.0 0.00 0.00 0.00 48 943.1
20260509141236 20 0.0 0.0 0.00 0.00 0.00 48 943.1
20260509140935 20 0.0 0.0 0.00 0.00 0.00 48 943.1
20260509140635 19 0.0 0.0 0.00 0.00 0.00 48 943.0
20260509140335 19 0.0 0.0 0.00 0.00 0.00 48 943.0
20260509140036 19 0.0 0.0 0.00 0.00 0.00 48 943.0
20260509135736 19 0.0 0.0 0.00 0.00 0.00 48 943.0
20260509135136 18 0.0 0.0 0.00 0.00 0.00 49 943.0
20260509134836 18 0.0 0.0 0.00 0.00 0.00 50 943.0
20260509134536 18 0.0 0.0 0.00 0.00 0.00 50 943.0
20260509134235 18 0.0 0.0 0.00 0.00 0.00 50 943.0
20260509133935 19 0.0 0.0 0.00 0.00 0.00 50 943.0
20260509133635 19 0.0 0.0 0.00 0.00 0.00 50 943.0
20260509133336 19 0.0 0.0 0.00 0.00 0.00 50 943.0
20260509133036 19 0.0 0.0 0.00 0.00 0.00 50 943.0
20260509132736 20 0.0 0.0 0.00 0.00 0.00 52 943.0
20260509131836 20 0.0 0.0 0.00 0.00 0.00 52 943.0
20260509131236 20 0.0 0.0 0.00 0.00 0.00 54 943.7
20260509130936 20 0.0 0.0 0.00 0.00 0.00 54 943.7
20260509130636 20 0.0 0.0 0.00 0.00 0.00 55 943.0
20260509130336 20 0.0 0.0 0.00 0.00 0.00 55 943.0
20260509130036 20 0.0 0.0 0.00 0.00 0.00 54 944.0
20260509125735 19 0.0 0.0 0.00 0.00 0.00 55 943.0
20260509125436 19 0.0 0.0 0.00 0.00 0.00 55 943.0
20260509125136 20 0.0 0.0 0.00 0.00 0.00 51 943.0
20260509124536 20 0.0 0.0 0.00 0.00 0.00 50 943.8
20260509124236 20 0.0 0.0 0.00 0.00 0.00 46 943.0
20260509123935 20 0.0 0.0 0.00 0.00 0.00 46 943.0
20260509123336 20 0.0 0.0 0.00 0.00 0.00 44 943.0
20260509123036 20 0.0 0.0 0.00 0.00 0.00 44 943.0
20260509122735 21 0.0 0.0 0.00 0.00 0.00 42 943.0
20260509122435 21 0.0 0.0 0.00 0.00 0.00 41 943.0
20260509121835 22 0.0 0.0 0.00 0.00 0.00 40 943.0
20260509121535 22 0.0 0.0 0.00 0.00 0.00 40 943.0
20260509121235 22 0.0 0.0 0.00 0.00 0.00 40 943.0
20260509120936 22 0.0 0.0 0.00 0.00 0.00 41 943.0
20260509120635 22 0.0 0.0 0.00 0.00 0.00 41 943.0
20260509120036 22 0.0 0.0 0.00 0.00 0.00 41 943.0
20260509115435 22 0.0 0.0 0.00 0.00 0.00 41 943.0
20260509115136 22 0.0 0.0 0.00 0.00 0.00 41 943.1
20260509114835 21 0.0 0.0 0.00 0.00 0.00 43 943.0
20260509114536 21 0.0 0.0 0.00 0.00 0.00 43 943.0
20260509114235 21 0.0 0.0 0.00 0.00 0.00 43 943.0
20260509113936 21 0.0 0.0 0.00 0.00 0.00 43 943.0
20260509113635 21 0.0 0.0 0.00 0.00 0.00 43 943.0
20260509113336 21 0.0 0.0 0.00 0.00 0.00 43 943.0
20260509113036 21 0.0 0.0 0.00 0.00 0.00 43 943.0
20260509112736 21 0.0 0.0 0.00 0.00 0.00 43 943.0
20260509112435 21 0.0 0.0 0.00 0.00 0.00 43 943.0
20260509112137 22 0.0 0.0 0.00 0.00 0.00 42 943.0
20260509111836 22 0.0 0.0 0.00 0.00 0.00 42 943.0
20260509111536 22 0.0 0.0 0.00 0.00 0.00 42 943.0
20260509110936 22 0.0 0.0 0.00 0.00 0.00 43 943.3
20260509110635 22 0.0 0.0 0.00 0.00 0.00 43 943.3
20260509110036 22 0.0 0.0 0.00 0.00 0.00 43 943.3
20260509105736 21 0.0 0.0 0.00 0.00 0.00 43 943.0
20260509105436 21 0.0 0.0 0.00 0.00 0.00 43 943.0
20260509105136 21 0.0 0.0 0.00 0.00 0.00 43 943.0
20260509104836 21 0.0 0.0 0.00 0.00 0.00 43 943.0
20260509104535 21 0.0 0.0 0.00 0.00 0.00 43 943.0
20260509104236 22 0.0 0.0 0.00 0.00 0.00 43 943.0
20260509103936 22 0.0 0.0 0.00 0.00 0.00 43 943.0
20260509103635 21 0.0 0.0 0.00 0.00 0.00 42 943.0
20260509103336 21 0.0 0.0 0.00 0.00 0.00 42 943.0
20260509103035 21 0.0 0.0 0.00 0.00 0.00 42 943.0
20260509102735 22 0.0 0.0 0.00 0.00 0.00 43 943.0
20260509102435 22 0.0 0.0 0.00 0.00 0.00 43 943.0
20260509102135 22 0.0 0.0 0.00 0.00 0.00 43 943.0
20260509101835 22 0.0 0.0 0.00 0.00 0.00 43 943.0
20260509101536 22 0.0 0.0 0.00 0.00 0.00 43 943.0
20260509101236 22 0.0 0.0 0.00 0.00 0.00 43 943.0
20260509100936 23 0.0 0.0 0.00 0.00 0.00 42 943.0
20260509100635 23 0.0 0.0 0.00 0.00 0.00 41 943.7
20260509100336 23 0.0 0.0 0.00 0.00 0.00 41 943.7
20260509100035 25 0.0 0.0 0.00 0.00 0.00 39 943.0
20260509095736 26 0.0 0.0 0.00 0.00 0.00 37 943.0
20260509095436 26 0.0 0.0 0.00 0.00 0.00 36 943.0
20260509095136 27 0.0 0.0 0.00 0.00 0.00 35 943.0
20260509094836 30 0.0 0.0 0.00 0.00 0.00 32 943.0
20260509094235 33 0.0 0.0 0.00 0.00 0.00 29 943.0
20260509093935 34 0.0 0.0 0.00 0.00 0.00 28 943.0
20260509093636 35 0.0 0.0 0.00 0.00 0.00 28 943.0
20260509093336 35 0.0 0.0 0.00 0.00 0.00 28 943.0
20260509093036 36 0.0 0.0 0.00 0.00 0.00 27 943.0
20260509092736 36 0.0 0.0 0.00 0.00 0.00 27 943.0